Peoria, IL

1:18 PM CDT on August 20, 2017 (GMT -0500)
Greater Peoria Regional

Weather History for KPIA - September, 2014

Change the Weather History Date:

Thursday, September 4, 2014

  Actual Average Record
Temperature  
Mean Temperature 79 °F 71 °F  
Max Temperature 89 °F 81 °F 98 °F (2015)
Min Temperature 69 °F 60 °F 40 °F (1974)
Degree Days  
Heating Degree Days 0 1  
Month to date heating degree days 0 3  
Since 1 July heating degree days 2 9  
Cooling Degree Days 14 6  
Month to date cooling degree days 47 27  
Year to date cooling degree days 1071 934  
Growing Degree Days 29 (Base 50)    
Moisture  
Dew Point 70 °F    
Average Humidity 69    
Maximum Humidity 79    
Minimum Humidity 59    
Precipitation  
Precipitation 0.64 in 0.10 in 2.78 in (2008)
Month to date precipitation 0.64 0.44  
Year to date precipitation 30.72 25.39  
Snow  
Snow 0.00 in 0.00 in 0.00 in ()
Month to date snowfall 0.0 0.0  
Since 1 July snowfall 0.0 0.0  
Since 1 September snowfall 0.0 0.0  
Snow Depth 0.00 in    
Sea Level Pressure  
Sea Level Pressure 29.96 in    
Wind  
Wind Speed 11 mph (South)    
Max Wind Speed 18 mph    
Max Gust Speed 27 mph    
Visibility 9 miles    
Events Rain , Thunderstorm    
T = Trace of Precipitation, MM = Missing Value Source: NWS Daily Summary

Daily Weather History Graph

Daily Weather History Graph

Search for Another Location

Airport or City:

Trip Planner

Search our weather history database for the weather conditions in past years. The results will help you decide how hot, cold, wet, or windy it might be!

Date:

Astronomy

Sep. 04, 2014 Rise Set
Actual Time 6:28 AM CDT 7:26 PM CDT
Civil Twilight 6:00 AM CDT 7:53 PM CDT
Nautical Twilight 5:27 AM CDT 8:26 PM CDT
Astronomical Twilight 4:53 AM CDT 9:01 PM CDT
Moon 4:04 PM CDT (9/4) 1:18 AM CDT (9/4)
Length of Visible Light 13h 53m
Length of Day
12h 57m
Waxing Gibbous, 74% of the Moon is Illuminated
Sep 4
Waxing Gibbous
Sep 8
Full
Sep 15
Last Quarter
Sep 24
New
Oct 1
First Quarter

Hourly Weather History & Observations

Time (CDT) Temp. Heat Index Dew Point Humidity Pressure Visibility Wind Dir Wind Speed Gust Speed Precip Events Conditions
12:54 AM 75.0 °F - 66.9 °F 76% 29.95 in 10.0 mi South 12.7 mph - N/A   Mostly Cloudy
1:54 AM 75.0 °F - 66.9 °F 76% 29.94 in 10.0 mi South 11.5 mph - N/A   Partly Cloudy
2:54 AM 73.9 °F - 66.9 °F 79% 29.93 in 10.0 mi South 10.4 mph - N/A   Scattered Clouds
3:54 AM 73.9 °F - 66.9 °F 79% 29.94 in 10.0 mi South 10.4 mph - N/A   Scattered Clouds
4:54 AM 73.0 °F - 66.9 °F 81% 29.95 in 10.0 mi South 8.1 mph - N/A   Overcast
5:54 AM 73.9 °F - 66.9 °F 79% 29.99 in 10.0 mi NNW 3.5 mph - 0.00 in   Overcast
6:13 AM 73.9 °F - 68.0 °F 82% 29.98 in 10.0 mi Calm Calm - N/A   Mostly Cloudy
6:21 AM 73.9 °F - 68.0 °F 82% 29.98 in 10.0 mi SSE 4.6 mph - N/A Thunderstorm Mostly Cloudy
6:39 AM 73.9 °F - 68.0 °F 82% 30.04 in 6.0 mi NW 12.7 mph 20.7 mph 0.01 in Rain , Thunderstorm Light Thunderstorms and Rain
6:47 AM 72.0 °F - 66.9 °F 84% 30.05 in 1.5 mi NW 9.2 mph 27.6 mph 0.08 in Rain , Thunderstorm Heavy Thunderstorms and Rain
6:54 AM 69.1 °F - 64.9 °F 87% 30.02 in 1.0 mi Variable 3.5 mph 19.6 mph 0.28 in Rain , Thunderstorm Heavy Thunderstorms and Rain
7:02 AM 69.1 °F - 66.0 °F 90% 30.03 in 1.5 mi ENE 5.8 mph - 0.11 in Rain , Thunderstorm Thunderstorms and Rain
7:08 AM 69.1 °F - 66.0 °F 90% 30.03 in 3.0 mi South 4.6 mph - 0.17 in Rain , Thunderstorm Heavy Thunderstorms and Rain
7:54 AM 69.1 °F - 66.0 °F 90% 29.99 in 9.0 mi SSE 11.5 mph - 0.36 in Rain , Thunderstorm Light Rain
8:17 AM 69.1 °F - 64.9 °F 87% 29.98 in 10.0 mi South 9.2 mph - 0.00 in   Partly Cloudy
8:54 AM 70.0 °F - 66.0 °F 87% 29.98 in 10.0 mi SSE 11.5 mph - 0.00 in   Mostly Cloudy
9:54 AM 73.9 °F - 66.9 °F 79% 29.97 in 10.0 mi South 9.2 mph - N/A   Scattered Clouds
10:54 AM 80.1 °F 82.7 °F 68.0 °F 67% 29.98 in 10.0 mi SSE 9.2 mph - N/A   Mostly Cloudy
11:54 AM 84.0 °F 89.0 °F 71.1 °F 65% 29.98 in 10.0 mi SSE 8.1 mph - N/A   Mostly Cloudy
12:54 PM 86.0 °F 91.5 °F 71.1 °F 61% 29.97 in 10.0 mi SE 10.4 mph - N/A   Partly Cloudy
1:54 PM 87.1 °F 93.6 °F 72.0 °F 61% 29.96 in 10.0 mi SSE 13.8 mph - N/A   Mostly Cloudy
2:54 PM 87.1 °F 95.4 °F 73.9 °F 65% 29.96 in 10.0 mi SSE 9.2 mph - N/A   Mostly Cloudy
3:54 PM 88.0 °F 96.5 °F 73.9 °F 63% 29.93 in 10.0 mi South 17.3 mph - N/A   Clear
4:54 PM 89.1 °F 99.1 °F 75.0 °F 63% 29.91 in 10.0 mi South 15.0 mph - N/A   Clear
5:54 PM 89.1 °F 98.0 °F 73.9 °F 61% 29.88 in 10.0 mi SSW 15.0 mph - N/A   Clear
6:54 PM 87.1 °F 95.4 °F 73.9 °F 65% 29.88 in 10.0 mi South 15.0 mph - N/A   Clear
7:54 PM 84.0 °F 91.2 °F 73.9 °F 72% 29.90 in 10.0 mi South 8.1 mph - N/A   Clear
8:54 PM 84.2 °F 90.9 °F 73.4 °F 70% 29.93 in 10.0 mi SSW 13.8 mph - N/A   Clear
9:54 PM 82.0 °F 87.9 °F 73.9 °F 76% 29.94 in 10.0 mi SSW 11.5 mph - N/A   Clear
10:54 PM 81.0 °F 86.2 °F 73.9 °F 79% 29.96 in 10.0 mi SSW 10.4 mph - N/A   Clear
11:54 PM 80.1 °F 84.2 °F 73.0 °F 79% 29.97 in 10.0 mi South 9.2 mph - N/A   Clear